Location: Asheville, NC
(35.6000°N, 82.5500°W)
Time: 17:46:48
(UTC-04:00)

STARS - Pass Details

Date: 07 January 2018
Orbit: 625 x 641 km, 98.3° (Epoch: 16 July)

Event Time Altitude Azimuth Distance (km) Brightness Sun altitude
Rises 18:29:38 0° 13° (NNE) 2,925 ? -11.4°
Reaches altitude 10° 18:31:50 10° 15° (NNE) 2,015 ? -11.8°
Maximum altitude 18:36:13 81° 102° (ESE) 645 ? -12.7°
Drops below altitude 10° 18:40:37 10° 190° (S) 2,012 ? -13.5°
Sets 18:42:48 0° 192° (SSW) 2,918 ? -13.9°
